User: anonymous   Login
Location: Coopersdale
(40.3556°N, 78.9372°W)
Time: 14:47:37
(UTC+00:00)
Language:

Transit 2A Rocket - Orbit

View from above orbital plane
View from above orbital plane
View from above satellite
View from above satellite

Ground track
Ground track

The orbit data is extracted from the following two-line orbital elements,

1    47U 60007C   21025.07531274 -.00000020  00000-0  20534-4 0  9994
2    47  66.6660 282.3812 0223003 142.6490 219.0359 14.42127361167087
Epoch (UTC): 25 January 2021 01:48:27
Eccentricity: 0.0223003
inclination: 66.6660°
perigee height: 592 km
apogee height: 910 km
right ascension of ascending node: 282.3812°
argument of perigee: 142.6490°
revolutions per day: 14.42127361
mean anomaly at epoch: 219.0359°
orbit number at epoch: 16708

The dashed part of the orbit path shows where the satellite is in the earth's shadow,  

DLR